Cairns, Queensland

5:00 AM AEST on September 29, 2016 (GMT +1000)
Cairns

Weather History for 94287 - January, 2014

Change the Weather History Date:

Wednesday, January 1, 2014

  Actual Average Record
Temperature  
Mean Temperature 81 °F -  
Max Temperature 88 °F - - ()
Min Temperature 74 °F - - ()
Cooling Degree Days 16    
Growing Degree Days 31 (Base 50)    
Moisture  
Dew Point 72 °F    
Average Humidity 71    
Maximum Humidity 89    
Minimum Humidity 53    
Precipitation  
Precipitation 0.00 in - - ()
Sea Level Pressure  
Sea Level Pressure 29.79 in    
Wind  
Wind Speed 7 mph ()    
Max Wind Speed 13 mph    
Max Gust Speed -    
Visibility 7.2 miles    
Events      
T = Trace of Precipitation, MM = Missing Value Source: Averaged Metar Reports

Daily Weather History Graph

Daily Weather History Graph

Search for Another Location

Airport or City:

Trip Planner

Search our weather history database for the weather conditions in past years. The results will help you decide how hot, cold, wet, or windy it might be!

Date:

Astronomy

Jan. 01, 2014 Rise Set
Actual Time 5:46 AM AEST 6:53 PM AEST
Civil Twilight 5:22 AM AEST 7:17 PM AEST
Nautical Twilight 4:54 AM AEST 7:46 PM AEST
Astronomical Twilight 4:25 AM AEST 8:15 PM AEST
Moon 5:15 AM AEST (1/1) 6:35 PM AEST (1/1)
Length of Visible Light 13h 54m
Length of Day
13h 07m
Waning Crescent, 0% of the Moon is Illuminated
Jan 1
Waning Crescent
Jan 1
New
Jan 8
First Quarter
Jan 16
Full
Jan 24
Last Quarter

Hourly Weather History & Observations

Time (AEST) Temp. Heat Index Dew Point Humidity Pressure Visibility Wind Dir Wind Speed Gust Speed Precip Events Conditions
12:00 AM 78 °F - 73 °F 79% 29.80 in - WNW 5.8 mph - -  
12:00 AM 78.8 °F - 73.4 °F 83% 29.80 in 6.2 mi WNW 5.8 mph - N/A   Partly Cloudy
12:30 AM 78.8 °F - 73.4 °F 83% 29.77 in 6.2 mi West 6.9 mph - N/A   Scattered Clouds
1:00 AM 78 °F - 72 °F 77% 29.78 in - WNW 5.8 mph - -  
1:00 AM 78.8 °F - 71.6 °F 78% 29.77 in 6.2 mi WNW 5.8 mph - N/A   Scattered Clouds
1:30 AM 78.8 °F - 71.6 °F 78% 29.77 in 6.2 mi West 6.9 mph - N/A   Scattered Clouds
2:00 AM 77.0 °F - 71.6 °F 83% 29.74 in 6.2 mi West 5.8 mph - N/A   Scattered Clouds
2:30 AM 77.0 °F - 71.6 °F 83% 29.74 in 6.2 mi West 5.8 mph - N/A   Scattered Clouds
3:00 AM 77 °F - 71 °F 75% 29.75 in - West 6.9 mph - -  
3:00 AM 77.0 °F - 69.8 °F 78% 29.74 in 6.2 mi West 6.9 mph - N/A   Partly Cloudy
3:30 AM 77.0 °F - 71.6 °F 83% 29.74 in 6.2 mi West 8.1 mph - N/A   Partly Cloudy
4:00 AM 76 °F - 71 °F 78% 29.75 in - West 6.9 mph - -  
4:00 AM 77.0 °F - 69.8 °F 78% 29.74 in 6.2 mi West 6.9 mph - N/A   Partly Cloudy
4:30 AM 77.0 °F - 69.8 °F 78% 29.74 in 6.2 mi West 6.9 mph - N/A   Partly Cloudy
5:00 AM 77.0 °F - 69.8 °F 78% 29.74 in - West 6.9 mph - N/A   Clear
5:30 AM 77.0 °F - 69.8 °F 78% 29.77 in 6.2 mi West 6.9 mph - N/A   Scattered Clouds
6:00 AM 76 °F - 68 °F 71% 29.77 in 19 mi WNW 6.9 mph - -   Partly Cloudy
6:00 AM 75.2 °F - 68.0 °F 78% 29.77 in 6.2 mi WNW 6.9 mph - N/A   Partly Cloudy
6:30 AM 75.2 °F - 71.6 °F 89% 29.77 in 6.2 mi South 4.6 mph - N/A   Partly Cloudy
7:00 AM 77 °F - 70 °F 72% 29.81 in - West 3.5 mph - -  
7:00 AM 77.0 °F - 69.8 °F 78% 29.80 in 6.2 mi West 3.5 mph - N/A   Partly Cloudy
7:30 AM 80.6 °F 83.9 °F 69.8 °F 70% 29.80 in 6.2 mi NNW 4.6 mph - N/A   Partly Cloudy
8:00 AM 82.4 °F 86.3 °F 69.8 °F 66% 29.80 in 6.2 mi West 5.8 mph - N/A   Partly Cloudy
8:30 AM 84.2 °F 89.6 °F 71.6 °F 66% 29.80 in 6.2 mi NNW 5.8 mph - N/A   Partly Cloudy
9:00 AM 86 °F - 72 °F 55% 29.82 in 19 mi North 12.7 mph - -   Partly Cloudy
9:00 AM 86.0 °F 91.8 °F 71.6 °F 62% 29.80 in 6.2 mi North 12.7 mph - N/A   Partly Cloudy
9:30 AM 86.0 °F 91.8 °F 71.6 °F 62% 29.83 in 6.2 mi North 12.7 mph - N/A   Partly Cloudy
10:00 AM 86 °F - 71 °F 53% 29.84 in - North 11.5 mph - -  
10:00 AM 86.0 °F 91.8 °F 71.6 °F 62% 29.83 in 6.2 mi North 11.5 mph - N/A   Partly Cloudy
10:30 AM 86.0 °F 91.8 °F 71.6 °F 62% 29.83 in 6.2 mi North 10.4 mph - N/A   Scattered Clouds
11:00 AM 86.0 °F 91.8 °F 71.6 °F 62% 29.80 in 6.2 mi North 10.4 mph - N/A   Scattered Clouds
11:30 AM 86.0 °F 93.4 °F 73.4 °F 66% 29.80 in 6.2 mi NNE 12.7 mph - N/A   Scattered Clouds
12:00 PM 87 °F - 73 °F 54% 29.81 in 19 mi NNE 10.4 mph - -   Partly Cloudy
12:00 PM 87.8 °F 95.6 °F 73.4 °F 62% 29.80 in 6.2 mi NNE 10.4 mph - N/A   Scattered Clouds
12:30 PM 87.8 °F 95.6 °F 73.4 °F 62% 29.80 in 6.2 mi NNE 10.4 mph - N/A   Scattered Clouds
1:00 PM 88 °F - 73 °F 53% 29.80 in - NNE 10.4 mph - -  
1:00 PM 87.8 °F 95.6 °F 73.4 °F 62% 29.77 in 6.2 mi NNE 10.4 mph - N/A   Scattered Clouds
1:30 PM 87.8 °F 95.6 °F 73.4 °F 62% 29.77 in 6.2 mi North 9.2 mph - N/A   Partly Cloudy
2:00 PM 87.8 °F 95.6 °F 73.4 °F 62% 29.77 in 6.2 mi NNE 10.4 mph - N/A   Partly Cloudy
2:30 PM 86.0 °F 93.4 °F 73.4 °F 66% 29.77 in 6.2 mi NNE 9.2 mph - N/A   Partly Cloudy
3:00 PM 87 °F - 74 °F 57% 29.77 in 19 mi NNE 9.2 mph - -   Partly Cloudy
3:00 PM 86.0 °F 93.4 °F 73.4 °F 66% 29.77 in 6.2 mi NNE 9.2 mph - N/A   Partly Cloudy
3:30 PM 86.0 °F 93.4 °F 73.4 °F 66% 29.74 in 6.2 mi North 9.2 mph - N/A   Partly Cloudy
4:00 PM 86 °F - 75 °F 63% 29.76 in - NNE 8.1 mph - -  
4:00 PM 86.0 °F 95.1 °F 75.2 °F 70% 29.74 in 6.2 mi NNE 8.1 mph - N/A   Partly Cloudy
4:30 PM 86.0 °F 93.4 °F 73.4 °F 66% 29.74 in 6.2 mi NE 9.2 mph - N/A   Partly Cloudy
5:00 PM 86.0 °F 93.4 °F 73.4 °F 66% 29.74 in 6.2 mi NNE 9.2 mph - N/A   Partly Cloudy
5:30 PM 84.2 °F 90.9 °F 73.4 °F 70% 29.74 in 6.2 mi NNE 8.1 mph - N/A   Partly Cloudy
6:00 PM 84 °F - 73 °F 62% 29.77 in - North 8.1 mph - -  
6:00 PM 84.2 °F 90.9 °F 73.4 °F 70% 29.77 in 6.2 mi North 8.1 mph - N/A   Scattered Clouds
6:30 PM 82.4 °F 88.2 °F 73.4 °F 74% 29.77 in 6.2 mi NNE 5.8 mph - N/A   Scattered Clouds
7:00 PM 82 °F - 73 °F 68% 29.79 in - NNE 6.9 mph - -  
7:00 PM 82.4 °F 88.2 °F 73.4 °F 74% 29.77 in 6.2 mi NNE 6.9 mph - N/A   Scattered Clouds
7:30 PM 82.4 °F 88.2 °F 73.4 °F 74% 29.80 in 6.2 mi NNE 5.8 mph - N/A   Scattered Clouds
8:00 PM 82.4 °F 88.2 °F 73.4 °F 74% 29.80 in 6.2 mi NNE 5.8 mph - N/A   Scattered Clouds
8:30 PM 82.4 °F 88.2 °F 73.4 °F 74% 29.80 in 6.2 mi NNE 5.8 mph - N/A   Scattered Clouds
9:00 PM 82 °F - 74 °F 69% 29.83 in - NE 5.8 mph - -   Overcast
9:00 PM 82.4 °F 88.2 °F 73.4 °F 74% 29.83 in 6.2 mi NE 5.8 mph - N/A   Scattered Clouds
9:14 PM 82.4 °F 88.2 °F 73.4 °F 74% 29.83 in 6.2 mi NE 5.8 mph - N/A   Mostly Cloudy
9:30 PM 82.4 °F 88.2 °F 73.4 °F 74% 29.83 in 6.2 mi NE 5.8 mph - N/A   Scattered Clouds
10:00 PM 81 °F - 73 °F 70% 29.85 in - NNE 5.8 mph - -  
10:00 PM 80.6 °F 85.4 °F 73.4 °F 79% 29.83 in 6.2 mi NNE 5.8 mph - N/A   Partly Cloudy
10:30 PM 80.6 °F 85.4 °F 73.4 °F 79% 29.83 in 6.2 mi NNE 4.6 mph - N/A   Scattered Clouds
11:00 PM 80.6 °F 85.4 °F 73.4 °F 79% 29.83 in 6.2 mi NNE 4.6 mph - N/A   Scattered Clouds
11:30 PM 80.6 °F 85.4 °F 73.4 °F 79% 29.83 in 6.2 mi NE 5.8 mph - N/A   Scattered Clouds